Location: Del Amo
(33.8464°N, 118.2104°W)
Time: 04:22:19
(UTC+00:00)

S-56A Canister/Altair - Pass Details

Date: 16 September 2024
Orbit: 636 x 2487 km, 38.9° (Epoch: 05 October)

Event Time Altitude Azimuth Distance (km) Brightness Sun altitude
Rises 07:22:34 0° 291° (WNW) 4,254 11.6 -53.3°
Enters shadow 07:24:17 - 289° (WNW) 3,731 11.2 -53.3°
Reaches altitude 10° 07:25:05 10° 288° (WNW) 3,496 - -53.4°
Maximum altitude 07:34:17 67° 209° (SSW) 1,975 - -53.6°
Drops below altitude 10° 07:47:40 10° 130° (SE) 4,926 - -53.8°
Sets 07:51:54 0° 128° (SE) 6,060 - -53.7°
